Regional Weather Roundup
Issued by NWS

Home | Current Version | Previous Version | Text Only | Print | Product List | Glossary Off
Versions: 1 2 3 4 5 6 7 8 9 10 11 12 13 14 15 16 17 18 19 20 21 22 23 24 25 26 27 28 29 30 31 32 33 34 35 36 37 38 39 40 41 42 43 44 45 46 47 48 49 50

000
ASUS45 KCYS 201510
RWRWY

WYOMING REGIONAL WEATHER ROUNDUP
NATIONAL WEATHER SERVICE CHEYENNE WY
900 AM MDT MON APR 20 2015

NOTE:  "FAIR" INDICATES FEW OR NO CLOUDS BELOW 12,000 FEET
WITH NO SIGNIFICANT WEATHER AND/OR OBSTRUCTIONS TO VISIBILITY.

WYZ001-201600-
YELLOWSTONE NATIONAL PARK

CITY           SKY/WX    TMP DP  RH WIND       PRES   REMARKS
LK YELLOWSTONE   N/A     27  22  81 VRB3      30.06R
W YELLOWSTONE  NOT AVBL

$$
WYZ002>013-054>058-071-098>099-201600-
NORTHERN WYOMING

CITY           SKY/WX    TMP DP  RH WIND       PRES   REMARKS
JACKSON        FAIR      37  27  65 CALM      30.03S
CODY           FAIR      39  27  60 CALM      30.00S
GREYBULL       FAIR      41  18  39 NE3       30.01F
WORLAND        FAIR      41  25  53 CALM      30.00F
SHERIDAN       FAIR      43  23  45 NW6       29.99F
BUFFALO          N/A     43  19  38 N13       29.97F
GILLETTE       FAIR      42  20  41 W10       29.96F
HULETT         FAIR      37  21  52 W5        29.97S WCI  34
NEWCASTLE      FAIR      36  21  55 NW13      29.97F WCI  27

$$
WYZ014>020-022>026-101>103-201600-
CENTRAL WYOMING

CITY           SKY/WX    TMP DP  RH WIND       PRES   REMARKS
BIG PINEY      FAIR      37  26  64 VRB5      30.03F WCI  33
PINEDALE       FAIR      36  28  75 CALM      30.03F
DUBOIS         FAIR      36  23  60 N12       29.98F HAZE    WCI  27
LANDER         FAIR      38  29  70 N3        30.00S
RIVERTON       FAIR      39  27  62 CALM      30.01F
CASPER         FAIR      38  27  64 SW12      30.00F WCI  30
DOUGLAS        FAIR      39  28  64 NW14      29.99F WCI  31

$$
WYZ021-027>030-104>119-201600-
SOUTHERN WYOMING

CITY           SKY/WX    TMP DP  RH WIND       PRES   REMARKS
EVANSTON       FAIR      39  24  55 SE6       30.02S WCI  35
KEMMERER       FAIR      36  30  80 N3        30.03
FORT BRIDGER   FOG       32  32 100 CALM      30.06S VSB 0
ROCK SPRINGS   CLOUDY    31  30  96 VRB3      30.03F
DIXON          CLOUDY    37  31  77 CALM      30.07S
RAWLINS        FOG       27  26  96 CALM      30.04S VSB 1/2
SARATOGA       FOG       27  27 100 MISG      30.05S VSB 3/4
LARAMIE        FOG       22  22 100 S3        30.00F VSB 1/4
CHEYENNE       FAIR      36  24  62 NW6       30.00F WCI  31
TORRINGTON     FAIR      39  25  57 W13       30.00F WCI  31
PINE BLUFFS    FAIR      37  27  65 NW9       30.02S WCI  31

$$



USA.gov is the U.S. government's official web portal to all federal, state and local government web resources and services.